Location: Unspecified
(49.2170°N, 0.0000°E)
Time: 12:29:13
(UTC+00:00)

Vanguard 3 - Pass Details

Date: 24 January 2021
Orbit: 508 x 3261 km, 33.3° (Epoch: 28 February)

Event Time Altitude Azimuth Distance (km) Brightness Sun altitude
Rises 08:28:50 0° 263° (W) 4,924 10.7 5.7°
Reaches altitude 10° 08:32:21 10° 251° (WSW) 4,317 10.6 6.1°
Maximum altitude 08:42:03 27° 201° (SSW) 3,985 11.0 7.3°
Drops below altitude 10° 08:55:21 10° 154° (SSE) 5,993 13.2 8.9°
Sets 09:01:32 0° 144° (SE) 7,182 14.1 9.7°
